Change the Weather History Date:

Wednesday, March 5, 2014

  Actual Average Record
Temperature  
Mean Temperature 36 °F 44 °F  
Max Temperature 46 °F 53 °F 80 °F (1983)
Min Temperature 26 °F 34 °F 20 °F (2002)
Degree Days  
Heating Degree Days 29 21  
Month to date heating degree days 159 110  
Since 1 July heating degree days 3760 3410  
Cooling Degree Days 0 0  
Month to date cooling degree days 0 0  
Year to date cooling degree days 0 0  
Moisture  
Dew Point 22 °F    
Average Humidity 66    
Maximum Humidity 92    
Minimum Humidity 40    
Precipitation  
Precipitation 0.00 in 0.13 in 2.72 in (1989)
Month to date precipitation 2.61 0.66  
Year to date precipitation 10.23 8.02  
Snow  
Snow 0.00 in 0.10 in - ()
Month to date snowfall 6.4 0.6  
Since 1 July snowfall 33.4 20.2  
Snow Depth 3.00 in    
Sea Level Pressure  
Sea Level Pressure 30.22 in    
Wind  
Wind Speed 3 mph (ENE)    
Max Wind Speed 9 mph    
Max Gust Speed 16 mph    
Visibility 10 miles    
Events      
T = Trace of Precipitation, MM = Missing Value Source: NWS Daily Summary

Daily Weather History Graph

Daily Weather History Graph

Search for Another Location

Airport or City:

Trip Planner

Search our weather history database for the weather conditions in past years. The results will help you decide how hot, cold, wet, or windy it might be!

Date:

Astronomy

Mar. 05, 2014 Rise Set
Actual Time 6:58 AM EST 6:30 PM EST
Civil Twilight 6:32 AM EST 6:57 PM EST
Nautical Twilight 6:02 AM EST 7:27 PM EST
Astronomical Twilight 5:32 AM EST 7:57 PM EST
Moon 9:29 AM EST (3/5) 11:32 PM EST (3/5)
Length of Visible Light 12h 24m
Length of Day
11h 31m
Waxing Crescent, 23% of the Moon is Illuminated
Mar 5
Waxing Crescent
Mar 8
First Quarter
Mar 16
Full
Mar 23
Last Quarter
Mar 30
New

Hourly Weather History & Observations

Time (EST) Temp. Windchill Dew Point Humidity Pressure Visibility Wind Dir Wind Speed Gust Speed Precip Events Conditions
12:53 AM 28.0 °F - 24.1 °F 85% 30.20 in 10.0 mi Calm Calm - N/A   Overcast
1:07 AM 28.0 °F - 24.1 °F 85% 30.16 in 10.0 mi Calm Calm - N/A   Overcast
1:53 AM 27.0 °F - 24.1 °F 89% 30.22 in 10.0 mi Calm Calm - N/A   Overcast
2:46 AM 27.0 °F - 24.1 °F 89% 30.16 in 10.0 mi Calm Calm - N/A   Overcast
2:53 AM 27.0 °F - 24.1 °F 89% 30.20 in 9.0 mi Calm Calm - N/A   Overcast
3:53 AM 26.1 °F 21.9 °F 23.0 °F 88% 30.17 in 9.0 mi SE 3.5 mph - N/A   Overcast
4:53 AM 27.0 °F 23.0 °F 24.1 °F 89% 30.18 in 10.0 mi SSE 3.5 mph - N/A   Overcast
5:43 AM 27.0 °F - 24.1 °F 89% 30.17 in 10.0 mi Calm Calm - N/A   Overcast
5:53 AM 27.0 °F - 24.1 °F 89% 30.21 in 10.0 mi Calm Calm - N/A   Overcast
6:53 AM 27.0 °F - 23.0 °F 85% 30.22 in 10.0 mi Calm Calm - N/A   Overcast
7:53 AM 27.0 °F 23.0 °F 23.0 °F 85% 30.25 in 10.0 mi NNE 3.5 mph - N/A   Overcast
8:53 AM 28.0 °F - 24.1 °F 85% 30.26 in 10.0 mi Calm Calm - N/A   Overcast
9:53 AM 30.0 °F - 25.0 °F 82% 30.25 in 10.0 mi Calm Calm - N/A   Overcast
10:45 AM 32.0 °F 28.7 °F 25.0 °F 75% 30.24 in 10.0 mi Variable 3.5 mph - N/A   Overcast
10:53 AM 32.0 °F 28.7 °F 25.0 °F 75% 30.27 in 10.0 mi Variable 3.5 mph - N/A   Mostly Cloudy
11:08 AM 34.0 °F 31.0 °F 25.0 °F 70% 30.23 in 10.0 mi Variable 3.5 mph - N/A   Scattered Clouds
11:53 AM 36.0 °F - 25.0 °F 64% 30.25 in 10.0 mi Calm Calm - N/A   Clear
12:53 PM 41.0 °F 38.0 °F 24.1 °F 51% 30.23 in 10.0 mi NE 4.6 mph - N/A   Clear
1:53 PM 42.1 °F 38.4 °F 21.0 °F 43% 30.20 in 10.0 mi NE 5.8 mph - N/A   Clear
2:53 PM 45.0 °F - 21.0 °F 39% 30.19 in 10.0 mi Calm Calm - N/A   Clear
3:53 PM 45.0 °F - 21.0 °F 39% 30.19 in 10.0 mi Calm Calm - N/A   Clear
4:53 PM 44.1 °F - 21.9 °F 42% 30.20 in 10.0 mi Calm Calm - N/A   Clear
5:53 PM 41.0 °F 38.0 °F 21.0 °F 45% 30.21 in 10.0 mi Variable 4.6 mph - N/A   Clear
6:53 PM 37.9 °F 34.4 °F 19.0 °F 47% 30.23 in 10.0 mi NE 4.6 mph - N/A   Clear
7:53 PM 37.0 °F 33.3 °F 17.1 °F 44% 30.25 in 10.0 mi NE 4.6 mph - N/A   Clear
8:53 PM 36.0 °F 32.1 °F 15.1 °F 43% 30.25 in 10.0 mi Variable 4.6 mph - N/A   Clear
9:53 PM 35.1 °F 29.3 °F 14.0 °F 42% 30.26 in 10.0 mi Variable 6.9 mph - N/A   Clear
10:53 PM 34.0 °F 29.8 °F 12.9 °F 42% 30.26 in 10.0 mi Variable 4.6 mph - N/A   Clear
11:53 PM 32.0 °F 26.4 °F 14.0 °F 48% 30.25 in 10.0 mi Variable 5.8 mph - N/A   Clear